User: anonymous   Login
Location: Unspecified
(0.0000°N, 0.0000°E)
Time: 19:56:04
(UTC+00:00)
Language:

FIREBIRD 4 - Orbit

View from above orbital plane
View from above orbital plane
View from above satellite
View from above satellite

Ground track
Ground track

The orbit data is extracted from the following two-line orbital elements,

1 40378U 15003C   17269.54219055  .00002941  00000-0  12605-3 0  9990
2 40378  99.1187 113.7896 0135557  26.7351 334.0781 15.15924352146367
Epoch (UTC): 26 September 2017 13:00:45
Eccentricity: 0.0135557
inclination: 99.1187°
perigee height: 424 km
apogee height: 611 km
right ascension of ascending node: 113.7896°
argument of perigee: 26.7351°
revolutions per day: 15.15924352
mean anomaly at epoch: 334.0781°
orbit number at epoch: 14636

The dashed part of the orbit path shows where the satellite is in the earth's shadow,  

DLR